User: anonymous   Login
Location: Unspecified
(0.0000°N, 0.0000°E)
Time: 14:00:25
(UTC+00:00)
Language:

Tiros 1 despin weight - Orbit

View from above orbital plane
View from above orbital plane
View from above satellite
View from above satellite

Ground track
Ground track

The orbit data is extracted from the following two-line orbital elements,

1   115U 60002D   19201.06714404 -.00000129  00000-0  11751-4 0  9996
2   115  48.1674  77.1976 0034605 220.3114 139.5232 14.83454900163471
Epoch (UTC): 20 July 2019 01:36:41
Eccentricity: 0.0034605
inclination: 48.1674°
perigee height: 594 km
apogee height: 642 km
right ascension of ascending node: 77.1976°
argument of perigee: 220.3114°
revolutions per day: 14.83454900
mean anomaly at epoch: 139.5232°
orbit number at epoch: 16347

The dashed part of the orbit path shows where the satellite is in the earth's shadow,  

DLR